Location: Koszewko
(53.2876°N, 14.9061°E)
Time: 21:42:12
(UTC+00:00)

Daily predictions for brighter satellites

Satellite Brightness Start Highest point End
(mag) Time Altitude Azimuth Time Altitude Azimuth Time Altitude Azimuth
Okean O Rocket 3.4 17:11:13 10° SSW 17:15:16 38° W 17:19:22 10° NNW
Cosmos 1980 Rocket 2.5 17:13:04 10° SW 17:18:45 73° NW 17:24:30 10° NNE
Cosmos 1500 4.4 17:16:22 10° SE 17:19:07 20° E 17:21:53 10° NE
Cosmos 1943 Rocket 4.3 17:17:13 10° NNW 17:19:52 13° N 17:22:33 10° NE
SL-08 RB Rocket 4.2 17:16:52 10° SE 17:21:05 39° ENE 17:25:21 10° N
CZ-2D R/B 4.0 17:17:38 10° S 17:21:23 59° W 17:25:11 10° NNW
Cosmos 1689 Rocket 3.1 17:21:15 10° NE 17:23:40 23° E 17:26:04 10° SSE
SJ-11-01 4.3 17:21:02 10° SSE 17:25:42 72° ENE 17:30:25 10° N
ERBS 2.5 17:22:54 10° SW 17:26:09 51° SSE 17:29:22 10° ENE
Cosmos 1862 Rocket 3.6 17:22:21 10° N 17:26:52 70° ENE 17:31:20 10° SSE
Cosmos 1867 3.9 17:22:19 10° SW 17:27:46 72° NW 17:33:16 10° NE
Cosmos 1666 Rocket 3.5 17:24:05 10° S 17:28:22 68° E 17:32:42 10° NNE
BREEZE-M DEB (TANK) 4.3 17:26:07 10° S 17:28:33 13° SSE 17:30:16 10° SE
CZ-2C R/B 4.0 17:24:35 10° S 17:30:13 59° W 17:35:38 10° NNW
Aureole 2 Rocket 1.5 17:28:51 10° NNW 17:31:25 67° ENE 17:33:55 10° SSE
Cosmos 2242 Rocket 4.2 17:28:09 10° N 17:32:22 37° ENE 17:36:32 10° SE
Cosmos 2322 Rocket 2.5 17:27:34 10° S 17:32:50 44° ESE 17:38:10 10° NE
Nadezhda 3 Rocket 4.0 17:27:36 10° N 17:33:59 71° ENE 17:40:21 10° SSE
Sich 1 3.5 17:31:35 10° SSW 17:35:58 68° WNW 17:40:25 10° N
Resurs 01 Rocket 3.5 17:35:07 10° ENE 17:36:58 13° NE 17:38:58 10° NNE
Cosmos 1461 3.2 17:33:13 10° SW 17:37:57 76° SE 17:42:41 10° NE
ATLAS 5 CENTAUR R/B 3.1 17:25:22 10° SW 17:38:29 81° NW 17:42:06 10° NE
Meteor 1-25 Rocket 4.2 17:34:13 10° S 17:39:57 75° E 17:45:38 10° NNE
Cosmos 1697 Rocket 4.2 17:34:58 10° WSW 17:40:11 36° NW 17:45:24 10° NNE
COSMOS 2428 4.4 17:41:43 10° ESE 17:42:30 11° ESE 17:42:30 11° ESE
Cosmos 2074 Rocket 4.0 17:37:47 10° S 17:44:04 88° ESE 17:50:22 10° N
Cosmos 2154 Rocket 4.0 17:38:12 10° S 17:44:18 63° E 17:50:26 10° NNE
Abrixas rocket 3.1 17:42:28 10° SW 17:44:33 23° S 17:45:57 15° SE
YAOGAN 1 2.8 17:40:47 10° S 17:45:05 74° WSW 17:49:27 10° NNW
Helios 1A Rocket 2.8 17:41:12 10° SSE 17:45:14 73° ENE 17:49:17 10° NNW
FALCON 9 DEB 2.9 17:43:03 10° W 17:46:14 87° S 17:48:33 17° E
Meteor 1-14 Rocket 4.4 17:42:27 10° SSE 17:47:44 47° E 17:53:02 10° NNE
COSMO-SKYMED 1 3.2 17:43:42 10° N 17:48:00 61° WNW 17:52:17 10° SSW
Cosmos 1610 Rocket 4.5 17:41:53 10° S 17:48:01 66° E 17:54:16 10° NNE
Cosmos 2219 Rocket 3.6 17:47:31 10° SE 17:50:46 16° E 17:53:41 11° ENE
SJ-6B 3.7 17:47:09 10° SE 17:50:46 31° ENE 17:54:22 10° N
GP-B 3.4 17:48:26 10° SSE 17:52:40 46° E 17:56:56 10° N
Cosmos 2263 Rocket 4.4 17:48:58 10° NW 17:53:39 28° WSW 17:58:18 10° SSW
MetOp-A 4.4 17:49:04 10° SE 17:54:13 50° ENE 17:59:23 10° N
Meteor 1-18 Rocket 4.5 17:48:18 10° NNW 17:54:17 82° W 18:00:12 10° S
Cosmos 1992 Rocket 4.1 17:51:34 10° S 17:56:41 56° ESE 18:01:49 10° NNE
SL-16 R/B 2.2 17:51:39 10° SSW 17:57:18 77° ESE 18:03:00 10° NE
USA 234 4.1 17:52:33 13° ENE 17:57:21 28° SE 18:02:47 10° S
ARGOS 3.3 17:52:48 10° SSE 17:58:14 80° WSW 18:03:43 10° NNW
Cosmos 1515 4.4 17:54:52 10° NNW 17:58:38 58° W 18:02:23 10° S
FALCON 9 DEB 2.8 17:55:31 10° W 17:58:43 88° S 18:00:32 23° E
Okean 1 3.9 17:54:44 10° NNW 17:58:44 62° W 18:02:43 10° S
SeaSat 1 2.8 17:56:02 10° NE 18:00:45 43° ESE 18:05:26 10° S
SJ 16-02 2.7 17:57:19 10° N 18:00:52 23° NE 18:02:34 19° E
Okean 1-7 3.1 17:57:57 10° N 18:02:18 56° ENE 18:06:34 10° SSE
OBJECT-B 1.7 18:03:22 23° ESE 18:04:27 29° ENE 18:07:19 10° N
Cosmos 1633 Rocket 3.5 18:00:05 10° SSW 18:04:29 67° WNW 18:08:56 10° N
Cosmos 2184 Rocket 4.3 17:58:34 10° SSW 18:04:43 72° WNW 18:10:58 10° N
Cosmos 2369 Rocket 4.3 18:02:13 10° NNW 18:04:54 13° N 18:07:36 10° NE
CZ-2C R/B 2.7 18:00:39 10° NNE 18:06:07 59° E 18:11:26 10° S
SAR-Lupe-4 3.4 18:05:14 10° NNE 18:08:50 79° ESE 18:12:25 10° SSW
IRS-1A Rocket 4.5 18:04:16 10° SE 18:09:39 49° ENE 18:14:59 10° N
CZ-4 R/B 3.1 18:06:06 10° SSW 18:09:40 35° W 18:13:18 10° NNW
H-2A R/B 3.2 18:04:28 10° S 18:09:45 49° W 18:15:03 10° NNW
USA 305 2.9 18:08:03 10° W 18:12:20 81° N 18:14:50 24° E
DMSP B5D2-2 4.3 18:07:28 10° NNE 18:12:30 45° E 18:17:28 10° S
Gbstr 26 Del rocket 3.3 18:10:36 10° W 18:15:06 75° S 18:18:26 23° E
SL-8 Rocket 4.2 18:10:23 10° SSE 18:16:18 47° E 18:22:12 10° NNE
Cosmos 2237 4.2 18:10:59 10° SSW 18:16:37 62° ESE 18:22:18 10° NE
SL-4 R/B 2.0 18:13:41 10° W 18:17:09 53° SSW 18:18:38 29° SE
Cosmos 962 Rocket 4.4 18:12:09 10° S 18:18:18 68° E 18:24:35 10° NNE
Cosmos 1869 Rocket 4.1 18:17:14 10° SSE 18:21:13 36° E 18:25:16 10° NNE
USA 307 2.9 18:19:20 10° W 18:23:38 80° N 18:25:41 30° E
Cosmos 1339 Rocket 4.4 18:18:45 10° N 18:24:57 75° ENE 18:31:13 10° SSE
USA 186 0.8 18:25:07 67° SSE 18:25:22 84° E 18:27:54 10° NNW
ERS-2 2.5 18:22:26 10° N 18:26:05 65° WNW 18:29:42 10° SSW
ATLAS CENTAUR R/B 1.3 18:22:41 10° SSW 18:26:09 44° SE 18:26:57 37° E
USA 306 2.9 18:22:44 10° W 18:27:02 80° N 18:28:56 32° E
Cosmos 1378 3.6 18:25:16 10° N 18:28:49 39° ENE 18:29:16 38° E
Cosmos 1844 Rocket 3.2 18:23:37 10° NW 18:29:06 59° WSW 18:34:33 10° SSE
FALCON 9 DEB 2.8 18:25:59 10° W 18:29:10 80° S 18:29:48 53° ESE
CSL-04 Rocket 4.4 18:25:22 10° S 18:30:48 56° WSW 18:36:15 10° NNW
FALCON 9 DEB 2.8 18:27:56 10° W 18:31:09 83° S 18:31:45 55° ESE
Cosmos 2366 rocket 4.2 18:25:14 10° SSE 18:31:17 50° E 18:37:24 10° NNE
Cosmos 1777 Rocket 3.9 18:28:43 10° NNW 18:34:01 86° ENE 18:37:59 18° SSE
USA 308 2.9 18:29:56 10° W 18:34:14 80° N 18:35:51 37° E
Cosmos 1666 2.5 18:31:53 10° S 18:35:34 63° E 18:39:16 10° NNE
Cosmos 2341 Rocket 3.9 18:33:23 10° S 18:39:42 82° E 18:46:00 10° NNE
SPOT 3 Rocket 4.0 18:37:59 32° ESE 18:39:46 43° ENE 18:44:42 10° N
Meteor 1-5 Rocket 4.0 18:34:38 10° S 18:40:00 78° E 18:45:35 10° NNE
Cosmos 2333 4.4 18:35:10 10° S 18:40:32 47° ESE 18:46:01 10° NE
Okean 3 3.4 18:36:37 10° N 18:40:52 69° ENE 18:42:57 29° SSE
Cosmos 1844 4.3 18:35:13 10° NW 18:40:55 58° WSW 18:46:30 10° SSE
CZ-4B R/B 4.5 18:39:13 10° NNW 18:41:00 15° WNW 18:42:46 10° W
ARIANE 5 R/B 4.2 18:44:05 20° NE 18:44:05 20° NE 18:46:53 10° N
Cosmos 2221 Rocket 3.8 18:40:53 10° N 18:45:09 45° ENE 18:45:39 43° E
Ariane Rocket 2.9 18:42:04 17° SSE 18:46:03 82° ENE 18:51:12 10° NNW
Cosmos 2360 Rocket 2.1 18:41:01 10° SSW 18:46:41 83° ESE 18:52:23 10° NNE
Cosmos 2278 Rocket 2.5 18:41:08 10° NNW 18:46:42 51° NE 18:48:36 36° ESE
Cosmos 1727 Rocket 3.9 18:42:47 10° N 18:48:58 64° ENE 18:52:57 23° SSE
SPOT 1/Viking Rocket 4.4 18:49:19 30° ENE 18:49:37 30° ENE 18:54:05 10° N
Meteor 2-20 4.4 18:44:50 10° N 18:50:53 60° ENE 18:54:04 29° SE
Cosmos 1703 Rocket 4.5 18:48:20 10° NNW 18:52:37 48° W 18:56:48 10° SSW
Cosmos 1500 4.4 18:50:53 10° SW 18:54:25 41° WNW 18:58:01 10° N
Cosmos 2333 Rocket 2.3 18:51:21 10° S 18:56:49 50° ESE 19:02:20 10° NE
Cosmos 1821 Rocket 4.4 18:57:21 36° E 18:57:30 36° E 19:03:03 10° NNE
Cosmos 2218 Rocket 3.9 18:51:54 10° S 18:58:17 76° E 19:04:41 10° NNE
ERBS 2.9 18:59:06 10° W 19:02:18 51° NNW 19:02:18 51° NNW
Cosmos 1980 Rocket 4.4 18:59:17 10° W 19:03:46 23° NNW 19:08:17 10° NNE
Cosmos 1943 Rocket 3.6 19:01:19 10° NNW 19:05:51 23° NNE 19:06:52 22° NE
Cosmos 1674 Rocket 4.4 19:04:34 10° N 19:07:36 35° NE 19:07:36 35° NE
MetOp-B 4.2 19:08:50 50° E 19:09:29 53° ENE 19:14:42 10° N
IGS 5A 4.1 19:11:13 42° NNE 19:11:13 42° NNE 19:14:25 10° N
Resurs 01 Rocket 1.5 19:12:41 70° ENE 19:12:41 70° ENE 19:17:06 10° N
Cosmos 864 Rocket 4.4 19:08:53 10° S 19:15:04 90° WNW 19:21:21 10° N
Cosmos 2123 Rocket 4.4 19:09:14 10° N 19:15:11 42° ENE 19:15:27 41° ENE
SME Rocket 4.3 19:07:08 10° NNE 19:16:15 88° ESE 19:22:00 10° SSW
Cosmos 2322 Rocket 3.3 19:11:34 10° WSW 19:16:57 44° NW 19:22:21 10° NNE
Lacrosse 4 Rocket 4.0 19:14:20 10° SSW 19:14:29 11° SSW 19:14:29 11° SSW
Cosmos 1959 Rocket 4.5 19:14:23 10° SSW 19:20:30 81° W 19:26:41 10° N
Cosmos 192 4.2 19:19:02 10° SSW 19:23:57 90° E 19:28:55 10° NNE
SJ-6B 4.5 19:22:30 15° SSW 19:25:23 33° W 19:29:05 10° NNW
ASTEX 1 3.6 19:20:44 10° N 19:25:37 68° W 19:30:11 11° SSW
COSMOS 2428 3.3 19:21:15 10° SSW 19:32:11 11° NE 19:32:28 10° NE
Cosmos 1937 Rocket 4.0 19:21:58 10° NNW 19:26:29 43° NE 19:26:29 43° NE
Meteor 1-23 Rocket 4.3 19:22:40 10° NNW 19:28:15 75° W 19:30:27 38° S
USA 245 4.3 19:29:59 60° E 19:30:15 60° ENE 19:36:24 10° N
Cosmos 2219 Rocket 2.0 19:28:12 10° SSW 19:33:48 78° ESE 19:39:27 10° NNE
Meteor 1-11 Rocket 3.9 19:28:06 10° SSW 19:33:48 72° WNW 19:39:25 10° N
OBJECT-B 3.1 19:36:26 22° WSW 19:36:44 22° W 19:39:22 10° NW
SeaSat 1 3.5 19:33:37 10° NNE 19:38:18 43° NW 19:42:57 10° WSW
SJ 16-02 1.7 19:35:29 10° NNW 19:39:34 60° W 19:39:34 60° W
Terra 3.5 19:42:57 22° NNE 19:42:57 22° NNE 19:45:11 10° N
USA 234 3.1 19:39:54 58° E 19:41:08 71° SSE 19:47:40 10° SW
SL-16 R/B 4.0 19:37:02 10° W 19:42:00 30° NW 19:47:00 10° NNE
Cosmos 1536 4.2 19:46:16 35° NNW 19:46:16 35° NNW 19:48:54 10° N
Meteor 2-20 Rocket 4.4 19:41:37 10° NNW 19:47:43 78° W 19:49:08 55° S
USA 281 3.9 19:47:39 37° NE 19:48:03 37° NE 19:53:57 10° NNW
Cosmos 2369 Rocket 3.6 19:46:19 10° NNW 19:50:42 26° NNE 19:50:42 26° NNE
USA 305 4.1 19:48:06 10° WNW 19:50:56 40° W 19:50:56 40° W
BREEZE-M DEB (TANK) 3.9 19:49:23 10° W 19:51:09 33° WSW 19:51:09 33° WSW
Cosmos 2322 3.9 19:48:14 10° SW 19:53:56 68° NW 19:59:40 10° NNE
Meteor 1-21 4.4 19:52:38 10° N 19:57:32 63° NNE 19:57:32 63° NNE
Cosmos 1898 Rocket 3.7 19:53:22 10° NNW 19:57:51 66° NNW 19:57:51 66° NNW
Spot 2 Rocket 4.0 20:01:34 55° N 20:01:34 55° N 20:05:34 10° NNW
Gbstr 26 Del rocket 4.0 19:57:03 10° W 20:00:59 53° WSW 20:00:59 53° WSW
ERS-1 Rocket 4.0 20:04:10 38° N 20:04:10 38° N 20:07:23 10° N
ATLAS CENTAUR R/B 3.6 20:01:46 10° W 20:03:11 20° W 20:03:11 20° W
Cosmos 2297 4.3 20:02:07 10° NNW 20:06:49 50° NNE 20:06:49 50° NNE
ARIANE 5 R/B 4.3 20:21:37 32° NNW 20:21:37 32° NNW 20:24:04 10° NNW
SPOT 1/Viking Rocket 4.5 20:29:56 45° WNW 20:29:56 45° WNW 20:33:54 10° NNW
Cosmos 2278 Rocket 3.3 20:25:29 10° NW 20:30:28 37° WSW 20:30:28 37° WSW
Cosmos 2360 Rocket 4.0 20:26:30 10° W 20:31:21 28° NW 20:36:14 10° NNE
Cosmos 2333 Rocket 3.3 20:35:52 10° WSW 20:41:15 41° NW 20:46:42 10° NNE
Resurs 01 Rocket 4.1 20:50:14 17° W 20:50:14 17° W 20:52:39 10° NW
Cosmos 1943 Rocket 3.4 20:44:51 10° NNW 20:48:24 39° NNW 20:48:24 39° NNW
Cosmos 2219 Rocket 3.9 21:13:30 10° W 21:18:21 29° NW 21:23:15 10° NNE
Terra 4.3 21:21:50 19° NNW 21:21:50 19° NNW 21:23:17 10° NNW
USA 234 4.4 21:27:15 34° W 21:27:15 34° W 21:30:44 10° W
USA 281 4.1 21:34:30 43° NW 21:34:30 43° NW 21:38:49 10° NNW
Cosmos 2369 Rocket 4.1 21:30:08 10° NNW 21:32:29 26° NNW 21:32:29 26° NNW
CENTAUR R/B 4.4 22:41:39 27° NE 22:41:39 27° NE 22:45:09 10° NE
SL-16 R/B 4.4 23:11:41 24° NNE 23:11:41 24° NNE 23:14:35 10° N
ATLAS 3B R/B 4.3 23:51:14 28° NE 23:51:14 28° NE 23:54:25 10° NE
